Dewpoint
57 57 57 57 57 57 57 57 57 57 57 57 57 57 57 58 58 59 60 60 60 60 60 60 60 60 60 60 59 59 59 59 58 59 59 58 58 58 58 58 58 57
52 55 56 57 56 56 56 56 56 56 56 56 56 56 56 56 57 58 59 59 60 60 60 60 60 60 60 59 59 59 59 59 58 58 58 58 58 58 58 58 58 58
50 51 52 53 55 56 56 56 55 55 55 55 55 55 55 55 55 56 57 58 59 59 60 60 60 59 59 59 59 59 59 59 58 58 58 58 58 58 58 58 58 58
49 50 50 50 51 52 53 53 53 54 54 54 53 54 54 55 55 55 55 55 57 58 59 59 59 60 59 59 59 59 59 58 58 58 58 58 58 58 58 58 58 58
48 49 49 49 50 50 50 51 51 52 52 52 53 53 53 53 54 54 54 55 56 57 58 58 59 59 59 59 59 59 59 58 58 58 58 58 58 58 58 58 58 58
47 48 49 49 49 49 49 49 50 50 50 51 51 52 52 53 53 53 53 54 54 55 56 57 58 59 59 59 59 59 59 58 58 58 58 58 58 58 58 58 58 58
45 45 46 47 48 48 49 49 49 49 49 50 50 51 51 52 52 53 53 53 54 54 55 55 56 57 58 59 59 59 59 59 58 58 58 58 58 58 58 58 57 57
44 44 45 45 46 47 47 47 48 48 49 47 49 49 49 51 51 52 53 53 53 54 54 55 55 56 57 58 58 59 59 59 59 58 58 58 58 57 58 58 57 57
44 44 44 44 44 46 46 47 47 47 47 47 48 48 48 49 50 51 51 52 52 53 54 54 54 55 56 57 57 58 58 58 58 58 58 58 57 57 57 57 57 57
43 43 43 43 43 45 45 45 46 46 45 46 47 47 47 47 47 48 49 50 50 51 52 52 53 54 55 55 56 57 57 58 58 58 58 58 57 57 57 57 57 57
42 41 41 42 43 44 44 44 44 44 44 44 45 45 45 46 46 45 47 48 48 49 50 50 51 52 53 53 54 56 56 57 57 57 58 58 58 58 54 57 57 57
41 39 40 41 42 42 42 43 43 43 43 44 44 44 45 45 45 46 46 47 47 48 49 50 51 51 52 53 54 54 55 56 56 57 57 57 57 57 57 57 57 57
40 40 40 40 40 41 41 40 41 40 40 42 43 42 43 44 45 45 46 46 47 48 48 49 49 50 51 52 53 54 55 55 56 56 56 57 57 57 57 57 57 57
41 40 40 41 41 40 40 40 40 40 41 41 39 41 42 43 44 45 46 45 46 47 48 48 49 49 50 51 52 53 54 54 55 55 56 56 56 56 56 56 56 56
39 39 41 40 40 40 40 40 41 40 40 40 39 39 41 41 43 44 43 44 44 45 46 47 48 49 50 50 51 52 53 54 54 55 55 55 55 55 55 55 56 56
38 37 38 38 39 39 39 39 39 39 39 39 39 39 39 40 40 40 41 42 43 43 44 46 47 48 46 45 46 50 52 53 54 53 53 54 54 54 54 55 55 55
38 38 38 37 38 38 38 38 39 39 39 38 39 38 38 39 38 39 39 40 41 42 42 44 45 46 43 45 45 45 47 51 52 53 53 53 53 53 54 54 54 54
36 36 35 36 37 38 38 38 37 37 38 38 38 38 39 37 37 38 38 39 40 40 41 42 43 41 42 43 43 44 44 47 50 51 52 53 53 53 53 53 53 54
34 34 34 34 35 35 36 36 37 37 37 37 37 37 36 37 38 38 38 39 38 38 39 40 41 40 41 42 42 43 43 44 47 49 50 51 52 53 53 54 54 54
32 32 32 32 33 34 34 35 35 36 36 36 35 35 36 36 36 37 37 37 38 37 38 39 40 39 40 41 41 42 42 43 46 47 48 49 50 51 52 53 54 54
30 30 31 31 32 33 33 34 34 34 35 35 35 36 36 37 37 37 37 37 37 36 37 38 39 38 39 40 40 41 42 42 44 45 46 47 48 49 50 51 52 53
30 30 31 32 33 33 33 34 34 33 34 34 34 35 35 35 35 35 35 36 36 36 36 37 38 38 38 39 39 40 41 41 41 43 44 45 46 46 47 49 50 51
29 30 31 32 33 33 33 33 33 33 33 33 34 34 34 34 35 35 36 36 36 36 35 36 37 37 37 38 38 39 40 39 39 40 42 43 44 45 46 47 48 49
29 30 31 32 33 33 33 32 32 32 32 32 32 33 33 34 34 35 35 35 34 35 35 36 37 37 37 37 38 39 38 38 39 39 41 42 42 43 44 46 46 41
27 29 31 32 32 32 32 31 31 32 32 32 32 32 33 33 33 33 34 34 33 34 34 34 35 35 36 37 37 38 38 37 38 39 40 41 42 42 43 43 44 42
26 28 30 31 31 31 30 31 31 31 31 31 31 31 32 32 32 32 32 33 33 32 33 34 34 35 35 36 37 38 38 38 38 39 39 40 41 40 40 41 41 42